Location: Lynch Observatory
(39.9540°N, 75.1861°W)
Time: 22:32:39
(UTC-04:00)

Envisat - Visible Passes

Search period start: 22 October 2017 00:00
Search period end: 01 November 2017 00:00
Orbit: 764 x 766 km, 98.2° (Epoch: 22 October)

Date Brightness Start Highest point End Pass type
(mag) Time Alt. Az. Time Alt. Az. Time Alt. Az.
22 Oct 4.4 20:24:49 27° NNE 20:24:49 27° NNE 20:27:12 10° N visible
22 Oct 6.0 22:05:02 10° NW 22:05:02 10° NW 22:05:05 10° NW visible
23 Oct 4.6 19:47:50 18° NE 19:47:50 18° NE 19:49:47 10° NNE visible
23 Oct 5.3 21:28:03 18° NW 21:28:03 18° NW 21:29:25 10° NNW visible
24 Oct 4.8 20:51:04 23° NNW 20:51:04 23° NNW 20:52:57 10° NNW visible
25 Oct 4.6 20:14:04 21° NNE 20:14:04 21° NNE 20:15:57 10° N visible
25 Oct 6.0 21:54:17 11° NW 21:54:17 11° NW 21:54:25 10° NW visible
26 Oct 4.9 19:37:05 14° NNE 19:37:05 14° NNE 19:38:19 10° NNE visible
26 Oct 5.3 21:17:18 17° NNW 21:17:18 17° NNW 21:18:26 10° NNW visible
27 Oct 4.9 20:40:18 20° N 20:40:18 20° N 20:41:48 10° N visible
28 Oct 4.8 20:03:18 17° NNE 20:03:18 17° NNE 20:04:40 10° N visible
28 Oct 5.9 21:43:31 10° NW 21:43:31 10° NW 21:43:37 10° NW visible
29 Oct 5.1 19:26:18 11° NNE 19:26:18 11° NNE 19:26:41 10° NNE visible
29 Oct 5.4 21:06:31 15° NNW 21:06:31 15° NNW 21:07:25 10° NNW visible
30 Oct 5.0 20:29:31 17° N 20:29:31 17° N 20:30:38 10° N visible
31 Oct 5.0 19:52:31 13° NNE 19:52:31 13° NNE 19:53:18 10° NNE visible
